sat.trackr.live / text

‹ back to catalog

STARLINK-36484

NORAD 67404 · 2026-005A

PAYLOAD ACTIVE UNKNOWN

§ Identity

Operator
Country
US
Launch date
2026-01-12
Launch site
AFETR
Launch vehicle
Mass (kg)
RCS (m²)

Purposes: comms

External: N2YO · Heavens-Above · Gunter

§ Orbital elements

Epoch: 2026-05-25T02:03:38.044800Z

Period
94.27 min
Inclination
42.9992°
Eccentricity
0.0001181
Mean motion
15.27584352 rev/d
Perigee alt
482.2 km
Apogee alt
483.8 km
Semi-major
6,861.2 km
B*
4.1888e-4
RAAN
166.2552°
Arg perigee
267.9631°
Mean anomaly
92.1085°
Rev number
2,038

§ Raw data

STARLINK-364841 67404U 26005A   26145.08585700  .00011284  00000+0  41888-3 0  99922 67404  42.9992 166.2552 0001181 267.9631  92.1085 15.27584352 20380

JSON: /api/v1/satellites/67404 · /tle

For live sub-satellite position, see the globe view (requires WebGL).

§ Visibility from observer

Set your observer location to see the next 7 days of passes ≥ 10°. The values pass through the URL so the page stays shareable.

No JS? Fill the form by hand. The geolocation button needs JavaScript.